Weather History for KVIS - February, 2013

Change the Weather History Date:

Sunday, February 24, 2013

  Actual Average (KHJO) Record (KHJO)
Temperature  
Mean Temperature 44 °F 52 °F  
Max Temperature 57 °F 64 °F 79 °F (2014)
Min Temperature 32 °F 41 °F 29 °F (2007)
Degree Days  
Heating Degree Days 20    
Month to date heating degree days  
Since 1 July heating degree days  
Cooling Degree Days 0    
Month to date cooling degree days  
Year to date cooling degree days  
Moisture  
Dew Point 32 °F    
Average Humidity 62    
Maximum Humidity 81    
Minimum Humidity 36    
Precipitation  
Precipitation 0.00 in 0.07 in 0.43 in (2010)
Month to date precipitation 1.47  
Year to date precipitation 3.51  
Snow  
Snow 0.00 in - - ()
Month to date snowfall  
Since 1 July snowfall  
Snow Depth -    
Sea Level Pressure  
Sea Level Pressure 30.21 in    
Wind  
Wind Speed 3 mph (SSE)    
Max Wind Speed 10 mph    
Max Gust Speed -    
Visibility 10 miles    
Events      
T = Trace of Precipitation, MM = Missing Value Source: NWS Daily Summary

Daily Weather History Graph

Daily Weather History Graph

Search for Another Location

Airport or City:

Trip Planner

Search our weather history database for the weather conditions in past years. The results will help you decide how hot, cold, wet, or windy it might be!

Date:

Astronomy

Feb. 24, 2013 Rise Set
Actual Time 6:34 AM PST 5:47 PM PST
Civil Twilight 6:08 AM PST 6:13 PM PST
Nautical Twilight 5:38 AM PST 6:43 PM PST
Astronomical Twilight 5:08 AM PST 7:13 PM PST
Moon 5:03 PM PST (2/24) 5:33 AM PST (2/24)
Length of Visible Light 12h 05m
Length of Day
11h 13m
Waxing Gibbous, 99% of the Moon is Illuminated
Feb 24
Waxing Gibbous
Feb 25
Full
Mar 4
Last Quarter
Mar 11
New
Mar 19
First Quarter

Hourly Weather History & Observations

Time (PST) Temp. Windchill Dew Point Humidity Pressure Visibility Wind Dir Wind Speed Gust Speed Precip Events Conditions
12:15 AM 37.4 °F 32.8 °F 28.4 °F 70% 30.16 in 10.0 mi ESE 5.8 mph - N/A   Clear
12:35 AM 35.6 °F 32.8 °F 28.4 °F 75% 30.15 in 10.0 mi South 3.5 mph - N/A   Clear
12:55 AM 37.4 °F 34.9 °F 28.4 °F 70% 30.15 in 10.0 mi WSW 3.5 mph - N/A   Clear
1:15 AM 37.4 °F - 28.4 °F 70% 30.16 in 10.0 mi Calm Calm - N/A   Clear
1:35 AM 37.4 °F - 28.4 °F 70% 30.16 in 10.0 mi Calm Calm - N/A   Clear
1:55 AM 37.4 °F - 28.4 °F 70% 30.16 in 10.0 mi Calm Calm - N/A   Clear
2:15 AM 35.6 °F - 26.6 °F 70% 30.16 in 10.0 mi Calm Calm - N/A   Clear
2:35 AM 35.6 °F - 28.4 °F 75% 30.15 in 10.0 mi Calm Calm - N/A   Clear
2:55 AM 35.6 °F - 28.4 °F 75% 30.15 in 10.0 mi Calm Calm - N/A   Clear
3:15 AM 35.6 °F - 28.4 °F 75% 30.15 in 10.0 mi Calm Calm - N/A   Clear
3:35 AM 35.6 °F 32.8 °F 30.2 °F 81% 30.15 in 10.0 mi ESE 3.5 mph - N/A   Clear
3:55 AM 35.6 °F 29.9 °F 28.4 °F 75% 30.15 in 10.0 mi ESE 6.9 mph - N/A   Clear
4:15 AM 35.6 °F 31.7 °F 28.4 °F 75% 30.16 in 10.0 mi SE 4.6 mph - N/A   Clear
4:35 AM 32.0 °F 27.5 °F 26.6 °F 80% 30.16 in 10.0 mi South 4.6 mph - N/A   Clear
5:15 AM 33.8 °F - 26.6 °F 75% 30.17 in 10.0 mi Calm Calm - N/A   Clear
5:35 AM 33.8 °F 29.6 °F 28.4 °F 81% 30.18 in 10.0 mi ESE 4.6 mph - N/A   Clear
5:55 AM 33.8 °F 29.6 °F 26.6 °F 75% 30.18 in 10.0 mi ESE 4.6 mph - N/A   Clear
6:15 AM 33.8 °F 29.6 °F 28.4 °F 81% 30.19 in 10.0 mi ESE 4.6 mph - N/A   Clear
6:35 AM 32.0 °F - 26.6 °F 80% 30.20 in 10.0 mi Calm Calm - N/A   Clear
6:55 AM 33.8 °F 30.8 °F 26.6 °F 75% 30.21 in 10.0 mi ESE 3.5 mph - N/A   Clear
7:15 AM 32.0 °F 27.5 °F 26.6 °F 80% 30.22 in 10.0 mi SE 4.6 mph - N/A   Clear
7:35 AM 33.8 °F 29.6 °F 28.4 °F 81% 30.22 in 10.0 mi SE 4.6 mph - N/A   Clear
7:55 AM 35.6 °F 31.7 °F 30.2 °F 81% 30.23 in 10.0 mi SE 4.6 mph - N/A   Clear
8:15 AM 37.4 °F 33.8 °F 30.2 °F 75% 30.23 in 10.0 mi SSE 4.6 mph - N/A   Clear
8:35 AM 39.2 °F 37.0 °F 32.0 °F 75% 30.24 in 10.0 mi SSE 3.5 mph - N/A   Clear
8:55 AM 41.0 °F 39.0 °F 32.0 °F 70% 30.24 in 10.0 mi SSE 3.5 mph - N/A   Clear
9:15 AM 42.8 °F - 33.8 °F 70% 30.24 in 10.0 mi Calm Calm - N/A   Clear
9:35 AM 44.6 °F 42.2 °F 33.8 °F 66% 30.25 in 10.0 mi ESE 4.6 mph - N/A   Clear
9:55 AM 46.4 °F 43.5 °F 33.8 °F 62% 30.25 in 10.0 mi ESE 5.8 mph - N/A   Clear
10:15 AM 46.4 °F 43.5 °F 33.8 °F 62% 30.25 in 10.0 mi SE 5.8 mph - N/A   Clear
10:35 AM 48.2 °F - 33.8 °F 58% 30.25 in 10.0 mi SSE 3.5 mph - N/A   Clear
10:55 AM 48.2 °F - 33.8 °F 58% 30.25 in 10.0 mi SE 6.9 mph - N/A   Clear
11:15 AM 51.8 °F - 33.8 °F 50% 30.24 in 10.0 mi SE 8.1 mph - N/A   Clear
11:35 AM 51.8 °F - 35.6 °F 54% 30.24 in 10.0 mi SSE 8.1 mph - N/A   Clear
11:55 AM 53.6 °F - 33.8 °F 47% 30.23 in 10.0 mi SE 10.4 mph - N/A   Clear
12:15 PM 53.6 °F - 35.6 °F 51% 30.23 in 10.0 mi South 10.4 mph - N/A   Clear
12:35 PM 55.4 °F - 35.6 °F 47% 30.22 in 10.0 mi SSE 8.1 mph - N/A   Clear
12:55 PM 55.4 °F - 35.6 °F 47% 30.21 in 10.0 mi SSE 6.9 mph - N/A   Clear
1:15 PM 55.4 °F - 35.6 °F 47% 30.21 in 10.0 mi SSW 8.1 mph - N/A   Clear
1:35 PM 55.4 °F - 35.6 °F 47% 30.21 in 10.0 mi South 5.8 mph - N/A   Clear
1:55 PM 55.4 °F - 35.6 °F 47% 30.20 in 10.0 mi SSE 4.6 mph - N/A   Clear
2:15 PM 57.2 °F - 35.6 °F 44% 30.20 in 10.0 mi SSW 4.6 mph - N/A   Clear
2:35 PM 57.2 °F - 35.6 °F 44% 30.20 in 10.0 mi South 4.6 mph - N/A   Clear
2:55 PM 57.2 °F - 35.6 °F 44% 30.19 in 10.0 mi South 5.8 mph - N/A   Clear
3:15 PM 57.2 °F - 33.8 °F 41% 30.19 in 10.0 mi South 5.8 mph - N/A   Clear
3:35 PM 57.2 °F - 32.0 °F 38% 30.18 in 10.0 mi SSW 9.2 mph - N/A   Clear
3:55 PM 57.2 °F - 30.2 °F 36% 30.18 in 10.0 mi SW 5.8 mph - N/A   Clear
4:15 PM 57.2 °F - 30.2 °F 36% 30.18 in 10.0 mi SW 5.8 mph - N/A   Clear
4:35 PM 57.2 °F - 30.2 °F 36% 30.18 in 10.0 mi SSW 5.8 mph - N/A   Clear
4:55 PM 55.4 °F - 32.0 °F 41% 30.18 in 10.0 mi SSW 3.5 mph - N/A   Clear
5:15 PM 55.4 °F - 33.8 °F 44% 30.18 in 10.0 mi SW 3.5 mph - N/A   Clear
5:35 PM 55.4 °F - 33.8 °F 44% 30.19 in 10.0 mi West 3.5 mph - N/A   Clear
5:55 PM 53.6 °F - 33.8 °F 47% 30.18 in 10.0 mi Calm Calm - N/A   Clear
6:15 PM 53.6 °F - 32.0 °F 44% 30.19 in 10.0 mi Calm Calm - N/A   Clear
6:35 PM 51.8 °F - 32.0 °F 47% 30.19 in 10.0 mi NNW 3.5 mph - N/A   Clear
6:55 PM 50.0 °F - 33.8 °F 54% 30.19 in 10.0 mi Calm Calm - N/A   Clear
7:15 PM 48.2 °F - 33.8 °F 58% 30.20 in 10.0 mi Calm Calm - N/A   Clear
7:35 PM 46.4 °F - 33.8 °F 62% 30.20 in 10.0 mi Calm Calm - N/A   Clear
7:55 PM 48.2 °F - 33.8 °F 58% 30.21 in 10.0 mi Calm Calm - N/A   Clear
8:15 PM 48.2 °F - 33.8 °F 58% 30.23 in 10.0 mi Calm Calm - N/A   Clear
8:35 PM 46.4 °F - 33.8 °F 62% 30.23 in 10.0 mi Calm Calm - N/A   Clear
8:55 PM 44.6 °F - 35.6 °F 71% 30.23 in 10.0 mi Calm Calm - N/A   Clear
9:15 PM 42.8 °F - 33.8 °F 70% 30.24 in 10.0 mi Calm Calm - N/A   Clear
9:35 PM 42.8 °F - 33.8 °F 70% 30.24 in 10.0 mi Calm Calm - N/A   Clear
9:55 PM 42.8 °F - 33.8 °F 70% 30.24 in 10.0 mi Calm Calm - N/A   Clear
10:15 PM 41.0 °F - 33.8 °F 76% 30.25 in 10.0 mi Calm Calm - N/A   Clear
10:35 PM 41.0 °F - 33.8 °F 76% 30.26 in 10.0 mi Calm Calm - N/A   Clear
10:55 PM 42.8 °F - 33.8 °F 70% 30.26 in 10.0 mi Calm Calm - N/A   Clear
11:15 PM 41.0 °F - 30.2 °F 65% 30.27 in 10.0 mi Calm Calm - N/A   Clear
11:35 PM 41.0 °F - 32.0 °F 70% 30.27 in 10.0 mi Calm Calm - N/A   Clear
11:55 PM 39.2 °F 35.0 °F 32.0 °F 75% 30.28 in 10.0 mi East 5.8 mph - N/A   Clear